Location: Springville
(37.3745°N, 89.2676°W)
Time: 14:28:39
(UTC+00:00)

H-2A R/B - Pass Details

Date: 29 October 2020
Orbit: 577 x 656 km, 98.5° (Epoch: 03 December)

Event Time Altitude Azimuth Distance (km) Brightness Sun altitude
Rises 23:30:48 0° 2° (N) 2,823 5.3 -6.4°
Reaches altitude 10° 23:33:08 10° 352° (N) 1,910 4.5 -6.9°
Maximum altitude 23:36:47 31° 290° (WNW) 1,021 3.9 -7.6°
Drops below altitude 10° 23:40:23 10° 227° (SW) 1,883 5.6 -8.3°
Sets 23:42:41 0° 217° (SW) 2,776 6.2 -8.7°
